Point Pleasant, WV

6:01 PM EDT on April 23, 2017 (GMT -0400)
Point Pleasant

Weather History for K3I2 - January, 2010

Change the Weather History Date:

Friday, January 8, 2010

  Actual Average (KHTS) Record (KHTS)
Temperature  
Mean Temperature 18 °F -  
Max Temperature 23 °F 42 °F 74 °F (1937)
Min Temperature 12 °F 26 °F -10 °F (1942)
Degree Days  
Heating Degree Days 48    
Moisture  
Dew Point 12 °F    
Average Humidity 82    
Maximum Humidity 93    
Minimum Humidity 73    
Precipitation  
Precipitation 0.00 in - - ()
Sea Level Pressure  
Sea Level Pressure 30.14 in    
Wind  
Wind Speed 10 mph (WSW)    
Max Wind Speed 16 mph    
Max Gust Speed 23 mph    
Visibility 7 miles    
Events Snow    
Averages and records for this station are not official NWS values.
T = Trace of Precipitation, MM = Missing Value Source: NWS Daily Summary

Daily Weather History Graph

Daily Weather History Graph

Search for Another Location

Airport or City:

Trip Planner

Search our weather history database for the weather conditions in past years. The results will help you decide how hot, cold, wet, or windy it might be!

Date:

Astronomy

Jan. 08, 2010 Rise Set
Actual Time 7:47 AM EST 5:23 PM EST
Civil Twilight 7:17 AM EST 5:52 PM EST
Nautical Twilight 6:44 AM EST 6:26 PM EST
Astronomical Twilight 6:12 AM EST 6:58 PM EST
Moon 1:48 AM EST (1/8) 12:15 PM EST (1/8)
Length of Visible Light 10h 35m
Length of Day
9h 36m
Last Quarter, 37% of the Moon is Illuminated
Jan 8
Last Quarter
Jan 15
New
Jan 23
First Quarter
Jan 30
Full
Feb 5
Last Quarter

Hourly Weather History & Observations

Time (EST) Temp. Windchill Dew Point Humidity Pressure Visibility Wind Dir Wind Speed Gust Speed Precip Events Conditions
12:00 AM 23.0 °F 13.1 °F 21.2 °F 93% 29.96 in 1.2 mi West 9.2 mph - N/A Snow Light Snow
12:20 AM 21.2 °F 10.1 °F 17.6 °F 86% 29.97 in 1.8 mi West 10.4 mph 18.4 mph N/A Snow Light Snow
12:40 AM 21.2 °F 7.3 °F 15.8 °F 80% 29.97 in 4.0 mi WSW 16.1 mph 23.0 mph N/A Snow Light Snow
1:00 AM 19.4 °F 8.6 °F 14.0 °F 80% 29.98 in 5.0 mi WSW 9.2 mph 20.7 mph N/A Snow Light Snow
1:20 AM 19.4 °F 6.6 °F 14.0 °F 80% 29.99 in 4.0 mi WSW 12.7 mph 19.6 mph N/A Snow Light Snow
1:40 AM 17.6 °F 2.7 °F 12.2 °F 79% 30.00 in 4.0 mi WSW 16.1 mph 23.0 mph N/A Snow Light Snow
2:00 AM 15.8 °F 3.4 °F 10.4 °F 79% 30.01 in 7.0 mi WSW 10.4 mph - N/A   Overcast
2:20 AM 15.8 °F 3.4 °F 10.4 °F 79% 30.02 in 7.0 mi WSW 10.4 mph - N/A   Mostly Cloudy
2:40 AM 14.0 °F -0.2 °F 10.4 °F 86% 30.03 in 10.0 mi WSW 12.7 mph 17.3 mph N/A   Mostly Cloudy
3:00 AM 14.0 °F 1.2 °F 8.6 °F 79% 30.04 in 10.0 mi WSW 10.4 mph 16.1 mph N/A   Mostly Cloudy
3:20 AM 14.0 °F 1.2 °F 10.4 °F 86% 30.04 in 5.0 mi WSW 10.4 mph - N/A Snow Light Snow
4:00 AM 14.0 °F -0.8 °F 10.4 °F 86% 30.05 in 5.0 mi WSW 13.8 mph 20.7 mph N/A Snow Light Snow
4:20 AM 12.2 °F -1.8 °F 8.6 °F 85% 30.06 in 5.0 mi SW 11.5 mph 18.4 mph N/A Snow Light Snow
4:40 AM 12.2 °F -1.0 °F 8.6 °F 85% 30.06 in 5.0 mi WSW 10.4 mph - N/A Snow Light Snow
5:00 AM 12.2 °F -0.2 °F 10.4 °F 92% 30.07 in 5.0 mi WSW 9.2 mph - N/A Snow Light Snow
5:20 AM 12.2 °F -1.0 °F 10.4 °F 92% 30.08 in 4.0 mi WSW 10.4 mph - N/A Snow Light Snow
5:40 AM 12.2 °F -0.2 °F 10.4 °F 92% 30.08 in 4.0 mi WSW 9.2 mph - N/A Snow Light Snow
6:00 AM 12.2 °F -2.5 °F 10.4 °F 92% 30.08 in 3.0 mi WSW 12.7 mph 17.3 mph N/A Snow Light Snow
6:20 AM 12.2 °F -0.2 °F 10.4 °F 92% 30.09 in 4.0 mi WSW 9.2 mph - N/A Snow Light Snow
6:40 AM 12.2 °F -0.2 °F 10.4 °F 92% 30.10 in 4.0 mi WSW 9.2 mph - N/A Snow Light Snow
7:00 AM 12.2 °F -1.0 °F 10.4 °F 92% 30.10 in 3.0 mi SW 10.4 mph - N/A Snow Light Snow
7:20 AM 12.2 °F 1.7 °F 8.6 °F 85% 30.11 in 7.0 mi SW 6.9 mph - N/A Snow Light Snow
7:40 AM 12.2 °F -1.0 °F 8.6 °F 85% 30.11 in 10.0 mi WSW 10.4 mph - N/A Snow Light Snow
8:00 AM 12.2 °F -0.2 °F 8.6 °F 85% 30.12 in 7.0 mi WSW 9.2 mph - N/A   Overcast
8:20 AM 12.2 °F -0.2 °F 8.6 °F 85% 30.12 in 5.0 mi WSW 9.2 mph - N/A Snow Light Snow
8:40 AM 12.2 °F 0.7 °F 8.6 °F 85% 30.12 in 5.0 mi SW 8.1 mph - N/A Snow Light Snow
9:00 AM 12.2 °F 0.7 °F 8.6 °F 85% 30.13 in 4.0 mi SW 8.1 mph - N/A Snow Light Snow
9:20 AM 12.2 °F 0.7 °F 8.6 °F 85% 30.14 in 4.0 mi SW 8.1 mph - N/A Snow Light Snow
9:40 AM 14.0 °F 2.9 °F 10.4 °F 86% 30.14 in 4.0 mi WSW 8.1 mph - N/A Snow Light Snow
10:00 AM 15.8 °F 5.1 °F 10.4 °F 79% 30.15 in 7.0 mi WSW 8.1 mph - N/A Snow Light Snow
10:20 AM 17.6 °F 5.0 °F 10.4 °F 73% 30.16 in 7.0 mi WSW 11.5 mph - N/A   Mostly Cloudy
10:40 AM 17.6 °F 5.0 °F 10.4 °F 73% 30.16 in 10.0 mi WSW 11.5 mph 17.3 mph N/A   Mostly Cloudy
11:00 AM 17.6 °F 6.4 °F 10.4 °F 73% 30.17 in 10.0 mi WSW 9.2 mph 16.1 mph N/A   Mostly Cloudy
11:20 AM 17.6 °F 7.3 °F 10.4 °F 73% 30.17 in 10.0 mi WSW 8.1 mph - N/A   Mostly Cloudy
11:40 AM 17.6 °F 7.3 °F 12.2 °F 79% 30.17 in 10.0 mi WSW 8.1 mph - N/A   Mostly Cloudy
12:00 PM 17.6 °F 7.3 °F 12.2 °F 79% 30.17 in 7.0 mi WSW 8.1 mph - N/A Snow Light Snow
12:20 PM 17.6 °F 5.7 °F 12.2 °F 79% 30.17 in 7.0 mi WSW 10.4 mph - N/A   Mostly Cloudy
12:40 PM 17.6 °F 5.7 °F 12.2 °F 79% 30.16 in 7.0 mi WSW 10.4 mph - N/A Snow Light Snow
1:00 PM 19.4 °F 8.6 °F 12.2 °F 74% 30.16 in 5.0 mi WSW 9.2 mph - N/A Snow Light Snow
1:20 PM 19.4 °F 9.5 °F 12.2 °F 74% 30.16 in 7.0 mi WSW 8.1 mph - N/A Snow Light Snow
1:40 PM 19.4 °F 8.6 °F 12.2 °F 74% 30.16 in 7.0 mi West 9.2 mph - N/A   Mostly Cloudy
2:00 PM 19.4 °F 7.9 °F 12.2 °F 74% 30.17 in 10.0 mi WSW 10.4 mph - N/A Snow Light Snow
2:20 PM 19.4 °F 8.6 °F 12.2 °F 74% 30.17 in 7.0 mi WSW 9.2 mph - N/A Snow Light Snow
2:40 PM 19.4 °F 7.9 °F 12.2 °F 74% 30.18 in 7.0 mi WSW 10.4 mph - N/A Snow Light Snow
3:00 PM 19.4 °F 8.6 °F 12.2 °F 74% 30.18 in 7.0 mi WSW 9.2 mph - N/A Snow Light Snow
3:20 PM 21.2 °F 10.9 °F 14.0 °F 74% 30.19 in 5.0 mi WSW 9.2 mph - N/A Snow Light Snow
3:40 PM 21.2 °F 14.9 °F 14.0 °F 74% 30.19 in 10.0 mi WSW 4.6 mph - N/A   Mostly Cloudy
4:00 PM 21.2 °F 11.7 °F 14.0 °F 74% 30.20 in 10.0 mi WSW 8.1 mph - N/A   Mostly Cloudy
4:20 PM 19.4 °F 7.2 °F 14.0 °F 80% 30.21 in 7.0 mi WSW 11.5 mph - N/A Snow Light Snow
4:40 PM 19.4 °F 7.2 °F 12.2 °F 74% 30.22 in 10.0 mi WSW 11.5 mph - N/A Snow Light Snow
5:00 PM 19.4 °F 11.5 °F 12.2 °F 74% 30.22 in 10.0 mi WSW 5.8 mph - N/A   Mostly Cloudy
5:20 PM 19.4 °F 11.5 °F 14.0 °F 80% 30.23 in 4.0 mi WSW 5.8 mph - N/A Snow Light Snow
5:40 PM 19.4 °F 10.4 °F 14.0 °F 80% 30.24 in 5.0 mi WSW 6.9 mph - N/A Snow Light Snow
6:00 PM 19.4 °F 10.4 °F 15.8 °F 86% 30.24 in 5.0 mi WSW 6.9 mph - N/A Snow Light Snow
6:20 PM 19.4 °F 10.4 °F 15.8 °F 86% 30.24 in 7.0 mi WSW 6.9 mph - N/A Snow Light Snow
6:40 PM 19.4 °F 10.4 °F 15.8 °F 86% 30.25 in 7.0 mi WSW 6.9 mph - N/A Snow Light Snow
7:00 PM 19.4 °F 10.4 °F 15.8 °F 86% 30.25 in 7.0 mi WSW 6.9 mph - N/A Snow Light Snow
7:20 PM 19.4 °F 9.5 °F 15.8 °F 86% 30.25 in 10.0 mi WSW 8.1 mph - N/A Snow Light Snow
7:40 PM 19.4 °F 9.5 °F 15.8 °F 86% 30.27 in 7.0 mi WSW 8.1 mph - N/A Snow Light Snow
8:00 PM 19.4 °F 10.4 °F 15.8 °F 86% 30.27 in 7.0 mi SW 6.9 mph - N/A Snow Light Snow
8:20 PM 19.4 °F 10.4 °F 15.8 °F 86% 30.27 in 7.0 mi WSW 6.9 mph - N/A Snow Light Snow
8:40 PM 19.4 °F 9.5 °F 15.8 °F 86% 30.27 in 10.0 mi WSW 8.1 mph - N/A Snow Light Snow
9:00 PM 19.4 °F 9.5 °F 15.8 °F 86% 30.28 in 7.0 mi WSW 8.1 mph - N/A Snow Light Snow
9:20 PM 19.4 °F 9.5 °F 15.8 °F 86% 30.28 in 10.0 mi WSW 8.1 mph - N/A Snow Light Snow
9:40 PM 19.4 °F 9.5 °F 15.8 °F 86% 30.29 in 10.0 mi WSW 8.1 mph - N/A   Overcast
10:00 PM 19.4 °F 10.4 °F 15.8 °F 86% 30.29 in 10.0 mi WSW 6.9 mph - N/A   Mostly Cloudy
10:20 PM 19.4 °F 10.4 °F 15.8 °F 86% 30.29 in 10.0 mi SW 6.9 mph - N/A   Mostly Cloudy
10:40 PM 19.4 °F 10.4 °F 15.8 °F 86% 30.29 in 10.0 mi WSW 6.9 mph - N/A   Mostly Cloudy
11:00 PM 19.4 °F 9.5 °F 15.8 °F 86% 30.29 in 10.0 mi WSW 8.1 mph - N/A   Overcast
11:20 PM 19.4 °F 11.5 °F 15.8 °F 86% 30.30 in 10.0 mi SW 5.8 mph - N/A   Overcast
11:40 PM 19.4 °F 10.4 °F 17.6 °F 93% 30.30 in 10.0 mi SW 6.9 mph - N/A   Mostly Cloudy